Lid_Strength_Index
1 2 3 3 2 2 2 2 2 2 2 1 1 2 3 3 3 3 3 3 2 -1 -1 -1 -1 -1 -2 -1 -1 -1 -1 -1 -0 -0 -0 -0 -0 -0 -0 0 -0 0 -1
0 1 2 3 3 2 2 2 2 2 2 2 2 2 2 2 3 3 3 3 2 0 -1 -1 -2 -2 -2 -2 -2 -2 -1 -2 -2 -1 -1 -0 -0 -0 -0 0 0 -0 -0
1 0 1 2 2 2 2 3 3 3 3 3 3 2 3 3 3 3 3 3 3 2 1 -1 -1 -2 -2 -2 -2 -2 -2 -2 -1 -1 -1 -1 -0 1 0 -0 -0 -0 -0
1 0 0 1 1 1 1 2 2 2 2 2 2 2 2 2 3 3 3 3 3 3 2 1 -1 -1 -2 -2 -2 -2 -2 -2 -2 -2 -2 -2 -0 0 0 -0 -1 -0 -0
0 0 0 -0 1 1 1 2 2 2 2 2 2 2 2 2 2 1 2 2 2 2 2 2 2 1 -1 -2 -2 -2 -2 -2 -2 -2 -2 -2 -2 -1 -1 -1 -0 -1 -0
-0 0 0 0 1 1 1 1 2 2 2 2 2 2 2 2 2 2 2 2 2 2 2 2 3 3 2 -0 -2 -2 -2 -2 -2 -2 -2 -2 -2 -2 -2 -1 -1 -1 -1
1 1 1 0 0 0 1 1 1 1 2 2 2 2 2 2 2 2 2 2 2 2 3 2 3 3 2 1 -0 -1 -2 -2 -2 -2 -2 -2 -2 -2 -2 -2 -1 -1 -1
2 1 0 0 0 0 1 1 1 2 2 1 3 3 5 3 3 2 1 1 1 2 3 3 3 3 3 3 2 -1 -2 -2 -2 -2 -2 -2 -2 -2 -2 -2 -2 -2 -2
5 5 5 4 2 1 1 1 1 2 3 2 2 3 6 6 4 2 2 2 2 2 2 2 2 2 2 2 1 1 -0 -1 -2 -2 -2 -2 -2 -2 -2 -2 -2 -2 -2
8 8 7 7 6 5 5 4 4 1 1 3 2 2 1 2 5 6 2 2 2 2 2 2 2 2 2 2 3 4 3 1 0 -1 -1 -2 -2 -2 -2 -2 -2 -2 -2
11 11 10 9 8 8 8 7 5 4 4 2 2 2 3 2 2 4 6 4 2 1 1 1 1 2 2 1 2 2 2 2 2 1 0 -0 -1 -1 -2 -2 -2 -2 -2
12 12 11 11 10 10 10 9 8 7 6 5 5 6 5 5 4 4 5 4 4 2 2 1 1 0 1 1 2 3 3 2 1 1 1 1 -0 -0 -1 -1 -2 -2 -2
14 14 13 12 12 11 11 9 10 10 9 10 9 8 7 8 7 7 7 7 6 4 3 2 2 3 4 4 5 5 4 3 1 1 1 1 1 0 0 -0 -1 -1 -1
14 14 14 13 12 12 11 11 11 11 11 11 11 10 10 9 8 7 8 8 9 7 6 7 3 5 6 5 6 6 6 4 4 2 1 1 0 0 0 -0 -1 -1 -1
14 14 14 13 13 12 12 12 12 12 11 11 11 11 10 9 10 10 9 9 10 12 11 8 9 7 7 8 7 7 6 6 4 3 3 3 3 2 1 0 0 -1 -1
15 15 14 14 13 13 13 13 13 12 12 11 11 11 11 10 10 10 9 10 10 11 12 9 10 10 9 8 8 8 7 7 6 5 4 4 4 5 5 3 2 1 1
15 15 14 14 14 14 14 14 13 13 13 12 12 12 12 11 12 12 10 11 11 11 12 12 10 10 10 10 9 9 8 8 7 6 5 5 5 6 5 5 3 2 2
15 15 14 14 14 14 14 14 14 14 13 13 13 13 13 12 13 12 12 12 12 12 13 14 12 12 12 11 11 11 9 8 9 8 7 7 6 6 5 4 4 6 6
16 15 14 14 14 14 14 14 14 14 13 13 13 13 13 14 14 13 13 14 13 13 13 13 14 12 12 12 12 12 12 12 10 9 8 7 6 6 6 6 6 6 7
15 15 14 14 14 14 14 14 14 14 14 13 13 13 13 14 14 14 13 13 13 13 13 13 14 14 13 13 13 15 15 13 13 11 10 8 8 8 7 7 6 6 6
15 15 15 14 14 13 13 14 14 14 14 14 14 14 13 14 13 13 13 14 14 14 14 14 15 15 15 15 16 15 16 15 14 13 13 12 12 10 10 8 8 7 6
15 15 15 14 14 13 12 12 14 14 14 15 15 15 14 15 14 13 13 13 13 15 15 16 16 16 16 16 16 17 17 17 18 14 15 15 13 13 11 10 7 6 6
15 15 15 14 14 14 12 13 14 15 15 16 16 15 15 15 15 15 14 14 14 14 14 15 17 17 17 17 17 18 18 18 18 17 17 18 15 15 13 11 10 10 9
15 15 15 15 15 14 13 13 15 15 16 16 16 16 16 17 16 15 16 16 16 16 16 15 16 16 16 16 16 17 17 18 18 17 16 20 16 16 16 15 12 11 9
16 15 15 15 15 15 14 14 15 16 16 16 16 16 17 17 15 15 17 17 18 17 15 15 15 15 15 16 16 18 21 21 22 20 17 18 17 19 18 17 14 12 12
15 15 15 15 16 17 15 14 15 16 17 17 17 16 16 16 15 15 17 18 19 18 18 19 19 18 18 18 17 19 20 23 23 24 17 21 20 19 22 17 16 16 15